Theta_e
305 305 306 306 306 306 306 306 306 306 306 306 306 306 305 306 305 300 297 300 292 285 285 288 288 290 289 287 285 287 287 286 285 282 279 275 274 275 275 278 280 283 281 279 280 278 273 276 280 280 275 275 274 274
303 305 306 306 305 305 304 303 304 304 306 306 305 305 305 305 304 302 292 296 295 288 286 291 290 291 290 290 291 286 286 285 288 283 280 277 272 273 274 273 281 276 282 279 280 276 274 273 271 273 273 272 271 271
301 302 304 305 305 305 305 304 304 304 304 304 304 304 304 304 303 299 294 295 293 286 286 286 285 290 293 293 293 287 287 288 286 288 285 281 273 278 272 273 276 278 277 278 276 276 272 271 271 270 271 270 270 270
300 300 301 303 304 303 303 303 303 304 304 305 303 302 301 301 302 299 290 291 293 287 281 282 290 286 291 296 295 294 291 292 292 290 284 282 273 281 277 279 276 271 273 274 273 274 273 271 268 268 269 268 267 267
298 300 300 301 302 303 303 302 302 301 301 301 302 302 300 298 298 294 291 290 290 289 281 282 286 287 289 292 292 294 294 289 284 281 279 279 283 279 279 278 267 265 263 271 271 265 267 266 266 265 265 265 265 264
297 298 298 299 300 300 302 301 301 300 300 299 300 301 301 300 299 294 286 292 288 290 285 278 284 284 285 289 288 286 287 286 283 279 279 277 276 277 273 265 265 264 264 263 260 261 263 265 264 263 263 263 263 263
296 296 296 297 298 299 300 300 300 299 299 300 298 299 298 294 287 283 284 284 289 289 285 280 281 284 283 285 285 285 283 277 279 278 278 279 274 274 272 265 263 263 263 263 262 262 261 260 260 261 261 261 262 262
294 294 294 294 295 297 298 300 300 300 299 298 296 296 295 294 290 283 284 286 290 287 285 278 278 281 282 279 278 283 278 275 272 274 270 269 272 270 260 263 263 262 262 261 259 260 259 260 260 258 258 258 257 259
293 293 293 293 293 294 295 298 299 300 299 297 296 293 288 283 283 283 288 286 281 284 275 273 275 275 279 281 283 278 278 269 270 266 264 267 266 262 260 262 260 258 257 257 258 256 255 255 256 256 255 255 255 256
292 292 292 292 291 292 293 293 297 298 298 295 290 286 280 279 284 285 279 278 274 270 273 267 270 270 275 279 277 276 274 271 263 262 265 263 255 260 259 256 257 255 254 253 252 253 252 251 252 252 251 253 255 256
291 291 291 291 290 290 291 291 291 295 295 285 282 277 280 283 283 278 269 269 269 264 264 266 267 271 273 275 275 276 270 268 264 261 262 259 259 260 257 255 256 255 254 251 251 250 250 250 250 251 251 251 252 252
290 290 290 290 290 289 289 289 288 282 279 280 279 281 279 275 275 270 263 264 260 258 261 262 263 265 270 271 272 268 265 266 261 259 261 260 260 257 255 253 252 251 250 249 248 249 249 251 250 250 250 250 250 252
289 289 290 289 289 288 287 286 286 284 283 281 274 267 270 265 262 260 259 259 256 257 259 258 261 263 266 270 266 267 262 258 259 261 262 261 257 254 251 249 248 247 246 247 248 249 249 249 249 250 250 249 249 250
288 288 288 289 287 287 285 283 283 281 274 269 267 261 259 256 256 254 255 255 258 260 258 260 260 263 262 264 264 259 258 259 259 259 262 257 253 252 248 248 248 248 248 249 250 250 249 249 249 249 249 249 250 250
287 287 287 287 286 285 284 281 278 269 265 260 261 256 255 255 255 254 254 255 257 257 259 258 258 266 261 261 261 259 258 259 261 263 258 254 250 250 249 249 249 250 249 249 250 249 248 248 248 249 250 250 250 249
286 283 282 287 286 283 282 275 271 266 260 257 255 256 254 255 256 256 256 255 257 257 258 256 258 260 257 258 261 260 260 260 261 254 252 251 251 252 251 252 251 251 249 248 249 248 249 249 248 250 249 249 249 248
283 275 285 286 284 280 280 270 265 259 258 256 252 252 253 254 253 253 252 254 258 255 254 255 258 258 257 258 259 258 260 257 253 252 254 253 253 252 251 250 250 248 247 248 249 249 248 248 245 246 248 248 247 248
274 279 284 284 276 274 264 267 264 260 254 255 255 252 252 251 253 252 252 254 253 254 255 254 258 258 257 258 259 256 253 250 252 252 252 250 249 248 249 249 248 248 248 248 247 246 245 245 246 249 248 248 247 247
277 281 284 283 275 266 263 262 263 255 250 251 252 253 252 251 251 251 251 253 253 253 253 255 257 257 258 256 255 253 251 252 251 253 252 251 251 250 250 249 249 247 247 247 246 247 247 247 248 248 248 248 248 248
282 282 282 278 277 267 261 259 263 260 253 254 253 252 252 252 250 250 250 251 252 252 254 256 256 256 256 254 253 253 254 255 254 251 252 252 252 249 251 250 250 249 247 246 245 247 246 246 248 249 248 248 248 248
277 275 278 269 264 259 255 254 254 253 253 252 249 252 253 252 251 250 250 249 251 254 257 256 254 251 248 247 248 249 253 254 254 254 254 253 253 253 250 248 247 246 246 246 247 247 250 250 249 248 248 247 247 248
268 277 267 271 264 259 256 253 255 253 254 250 251 250 251 252 249 248 245 249 254 258 256 255 253 249 247 247 247 246 247 248 247 248 249 251 249 249 248 249 248 248 248 249 249 251 251 251 248 247 247 247 249 248
271 270 265 264 262 259 253 253 253 252 254 253 251 253 252 250 248 247 250 253 254 249 247 247 245 242 246 242 242 243 243 246 247 247 248 248 248 248 247 248 250 250 249 251 250 251 250 250 249 247 248 248 248 250
267 259 258 257 259 254 252 252 254 253 252 252 253 253 252 248 248 250 253 254 254 245 245 244 244 245 244 243 244 248 249 247 246 247 247 249 248 249 250 250 250 251 253 248 248 248 248 249 250 249 250 251 252 253
265 258 257 257 254 256 254 253 252 253 253 249 252 252 251 244 251 251 253 257 251 248 248 246 245 248 250 251 251 250 248 251 251 252 250 253 247 246 247 247 250 253 251 248 249 250 250 249 251 251 252 253 253 254
259 251 255 253 254 257 253 255 253 252 249 250 250 248 246 250 252 255 256 257 255 255 253 253 253 249 250 255 252 250 251 250 249 250 250 253 254 255 254 253 251 254 255 254 252 252 251 253 253 253 254 255 255 255
260 255 247 243 247 249 249 246 246 249 250 253 251 250 251 254 253 258 257 254 256 253 253 255 258 257 255 252 252 248 246 253 251 250 247 248 251 255 256 256 255 256 253 253 255 256 256 257 256 256 257 257 257 256
252 249 259 249 247 245 250 248 249 251 252 250 251 254 255 257 260 259 258 253 249 248 248 248 248 249 250 251 249 249 245 244 244 246 248 249 250 251 253 255 252 259 253 254 255 256 257 258 258 259 258 258 258 258
250 246 250 247 246 247 249 254 253 251 246 250 254 255 257 256 253 252 252 249 245 247 248 249 249 245 245 245 245 245 247 249 250 250 250 254 252 256 254 254 253 254 255 255 258 258 256 258 258 258 258 258 257 257
248 242 249 247 252 254 251 244 245 239 240 240 239 244 247 249 250 247 246 245 247 250 250 250 249 249 251 250 249 246 248 250 253 257 256 257 256 253 252 252 253 253 253 255 256 257 261 262 262 261 258 256 256 255
243 243 249 249 251 246 240 237 237 237 238 238 236 239 244 245 246 247 249 251 250 246 247 248 248 248 249 250 251 252 254 252 252 253 254 251 250 250 250 252 253 253 253 254 255 256 257 256 257 257 257 257 256 256
244 247 250 254 252 241 238 241 241 241 241 240 241 237 240 242 247 254 249 247 247 247 251 251 251 254 253 254 254 255 254 250 253 253 253 254 254 253 253 254 254 255 254 255 256 257 257 257 257 256 257 257 257 256
243 243 243 246 248 249 243 244 246 246 244 244 244 243 242 245 251 256 250 252 254 256 257 256 256 254 253 253 253 253 255 254 254 259 258 258 256 256 253 254 255 256 256 257 258 258 257 257 257 257 257 257 256 254
Wind_Speed
40 32 29 29 28 30 31 29 24 20 27 33 32 35 34 41 28 7 2 4 8 5 4 7 7 1 3 4 10 10 6 2 3 4 4 3 4 5 5 3 8 7 7 4 3 4 7 7 3 3 3 8 8 7
41 38 30 32 34 34 30 32 34 37 33 33 36 30 37 31 23 9 5 5 10 9 4 7 7 10 4 4 9 1 2 4 6 5 2 4 3 3 6 4 2 3 4 6 3 3 6 11 14 10 8 7 8 7
39 38 36 32 33 33 31 31 29 30 35 37 34 31 26 18 14 13 8 5 7 5 5 6 5 8 10 5 2 4 3 4 2 1 4 3 6 3 4 2 5 2 3 5 6 5 8 11 12 10 8 8 9 9
36 38 37 32 31 32 31 31 31 30 27 29 32 33 29 25 20 13 6 3 5 6 6 3 5 6 17 2 5 5 8 5 5 4 4 4 5 0 1 4 5 0 3 6 6 7 9 10 10 8 8 8 9 9
35 32 32 32 29 27 27 28 28 30 29 26 23 30 31 28 26 17 8 7 6 6 6 3 1 10 12 17 20 13 7 4 3 4 5 4 3 4 1 4 4 4 2 3 4 4 2 8 7 10 9 10 10 11
34 33 29 28 28 25 24 26 26 24 27 25 24 24 24 23 11 6 7 5 10 4 6 5 1 7 12 12 13 13 6 4 4 5 4 3 0 1 4 4 3 4 6 6 4 3 4 4 12 10 7 8 9 9
33 32 32 25 21 21 20 20 25 24 24 24 27 25 23 25 10 8 3 3 13 2 6 5 3 5 6 2 4 5 5 4 4 4 4 2 2 3 2 4 6 6 6 7 7 1 5 8 2 5 6 7 7 6
34 33 32 31 25 18 17 16 20 24 25 27 29 28 25 24 14 5 7 14 2 6 5 5 3 2 7 4 3 4 3 4 7 3 3 3 2 2 5 5 8 5 6 6 6 6 5 2 4 2 2 4 6 8
33 33 33 31 29 24 14 14 16 16 23 23 23 15 9 9 4 1 12 9 8 8 6 5 2 3 7 2 2 4 3 5 3 4 3 2 3 4 1 8 6 3 3 5 3 5 4 5 4 7 7 9 7 9
33 33 32 32 31 27 22 7 11 16 19 13 2 4 4 1 4 2 7 5 9 7 7 5 3 3 4 2 3 3 3 3 4 3 3 5 1 3 4 4 6 4 4 2 4 4 5 5 6 4 4 4 4 5
31 32 32 31 30 31 27 19 6 10 5 3 4 4 1 2 1 4 6 7 5 7 6 3 6 3 6 3 3 4 2 2 4 5 4 1 1 4 7 6 5 5 5 5 5 4 3 3 2 3 5 4 4 5
25 28 30 30 29 29 27 25 13 6 1 3 7 5 3 6 4 9 4 4 9 3 5 3 4 4 3 3 4 4 3 3 2 2 4 1 2 4 7 5 4 4 5 4 2 4 2 2 2 3 3 4 5 5
20 24 29 28 27 25 25 19 16 11 2 3 7 9 8 8 16 10 7 5 4 6 4 4 2 1 3 2 4 4 7 1 1 2 4 3 4 4 5 4 4 2 3 3 2 2 2 1 3 2 4 5 4 4
16 20 27 29 27 23 22 20 13 6 9 10 9 12 8 7 6 3 3 3 3 4 5 4 3 2 2 5 1 7 3 2 3 2 5 2 5 6 4 3 5 4 4 4 4 3 2 1 3 4 4 4 3 4
19 11 25 28 26 22 16 17 19 8 8 9 8 8 6 2 1 0 2 2 1 3 4 2 2 1 3 5 3 5 4 0 4 5 3 2 4 6 5 4 4 5 4 3 3 2 2 1 2 4 4 3 2 3
19 8 14 29 23 22 13 10 9 6 8 8 11 5 1 0 1 0 3 1 1 4 2 1 0 5 4 3 4 0 4 3 4 1 0 3 6 6 6 5 4 3 3 3 2 3 3 2 3 5 5 3 3 2
10 4 27 22 15 16 20 8 7 12 8 8 4 2 2 3 2 1 2 3 4 2 2 2 7 3 1 4 2 2 4 4 3 2 3 4 4 3 3 4 5 4 4 3 2 2 3 2 2 2 3 3 3 4
4 9 25 21 6 7 6 9 8 8 10 3 4 2 2 1 1 1 1 2 3 2 3 2 2 3 3 4 3 3 2 1 1 1 2 2 4 5 4 5 4 5 4 3 3 3 2 1 3 4 4 4 3 4
4 14 22 23 9 7 8 9 7 8 2 1 1 0 2 1 1 2 2 2 1 2 2 2 4 1 2 2 3 2 2 3 4 2 2 2 5 6 5 3 4 3 4 4 4 4 3 5 4 3 3 1 2 3
10 17 23 22 14 7 9 6 4 7 3 2 1 2 0 0 1 1 2 3 2 1 4 2 3 3 4 3 2 2 4 4 5 3 2 3 3 5 6 5 4 4 4 3 3 3 2 3 4 5 4 4 3 4
10 11 15 9 7 11 8 4 6 3 3 3 1 1 0 0 1 2 2 3 3 2 1 4 3 2 2 1 2 2 2 3 3 4 4 3 4 5 4 3 3 2 3 3 3 4 5 5 4 3 4 4 4 4
3 12 4 7 7 6 7 4 4 1 3 2 1 0 1 1 2 2 2 1 3 4 4 4 3 3 2 2 4 3 1 3 3 3 1 4 3 2 2 4 4 5 5 5 5 5 5 4 3 3 3 3 3 3
6 5 6 6 9 9 3 1 5 5 4 3 2 3 3 2 2 2 2 4 5 1 1 2 3 1 3 1 1 2 3 5 3 3 3 4 2 2 2 3 5 5 4 5 4 4 5 4 4 3 3 3 2 3
10 9 7 6 5 2 1 5 2 3 3 4 3 3 4 3 5 4 3 4 4 1 1 4 3 3 2 3 3 4 5 5 2 2 3 4 3 4 5 5 5 6 6 2 3 3 3 3 4 3 4 4 4 5
9 9 6 5 4 6 5 4 4 5 1 1 2 2 3 2 2 2 5 5 2 3 4 4 2 2 3 3 2 4 5 7 7 7 4 7 3 1 2 4 5 7 5 4 5 6 5 4 5 5 6 6 7 7
7 5 4 2 2 5 4 3 2 4 3 0 4 1 1 3 2 7 6 5 4 5 6 9 9 4 5 7 4 3 5 6 4 3 4 8 9 7 5 5 3 5 9 9 5 7 6 6 6 8 7 8 9 8
3 1 1 1 2 4 4 3 2 3 2 5 3 2 3 0 6 7 3 2 3 3 3 5 8 7 5 3 3 3 3 7 6 4 1 1 4 6 6 6 7 5 5 7 7 7 7 7 7 7 7 6 7 7
3 3 5 4 3 0 5 2 4 6 5 3 5 3 7 10 8 5 5 2 3 2 2 1 2 2 3 2 3 4 2 3 3 3 3 4 7 6 7 7 4 5 4 5 6 6 7 6 6 6 7 7 6 5
3 2 3 3 1 0 5 6 6 3 1 4 5 5 6 5 3 3 3 2 2 3 1 2 3 1 1 1 1 2 4 7 9 7 6 6 3 5 8 7 6 6 5 5 9 9 8 7 7 7 7 6 5 4
1 1 3 1 4 5 2 1 1 2 2 0 2 5 5 6 6 2 3 3 3 6 4 4 3 5 5 5 4 4 6 7 8 7 6 6 6 3 4 5 5 5 5 6 6 5 9 8 8 8 7 5 5 5
1 1 2 2 4 2 1 0 0 1 1 1 0 3 5 8 9 5 6 5 4 3 3 4 5 5 5 5 6 5 7 8 13 14 8 3 2 3 3 4 4 4 5 5 5 5 5 5 6 6 7 9 9 9
1 2 4 2 3 2 1 1 1 1 1 1 3 1 4 4 7 6 4 5 4 4 9 5 4 6 7 7 4 4 3 1 5 8 10 8 7 6 5 4 4 5 5 6 6 6 8 9 7 8 9 11 11 10
2 1 1 2 3 2 1 1 1 3 2 3 4 4 4 4 9 6 2 7 5 4 6 7 6 4 5 6 5 4 5 3 5 7 8 9 8 7 5 4 5 5 7 7 7 8 10 12 10 10 10 11 10 9
Wind_Direction
32 45 60 61 72 76 67 83 90 145 134 140 147 162 162 162 169 110 38 34 118 92 30 11 39 98 134 140 154 165 97 304 40 82 113 194 119 213 86 140 165 158 162 169 112 185 257 358 320 174 73 75 63 30
27 34 57 66 73 75 75 59 74 72 120 132 119 126 146 163 130 147 86 73 82 74 103 86 102 47 333 317 135 307 122 135 148 117 121 106 84 119 156 172 342 134 161 158 121 165 79 42 86 69 42 72 37 17
32 32 42 54 61 63 73 82 72 79 88 91 96 101 111 127 111 111 116 114 74 113 72 43 357 311 346 337 273 127 34 103 48 102 139 142 107 135 132 183 103 66 352 98 127 120 116 106 83 54 45 41 19 8
40 35 36 40 53 62 63 69 74 75 82 94 94 92 89 90 104 83 74 335 92 104 91 20 320 10 317 12 72 57 104 72 118 65 82 104 119 267 106 144 98 316 11 119 83 111 111 95 60 36 41 27 7 353
38 44 39 37 46 60 64 66 66 73 78 81 93 106 101 93 96 90 80 34 23 96 126 138 244 353 352 47 49 43 62 70 49 66 52 74 94 76 337 81 78 1 138 158 162 72 37 86 65 39 26 11 359 346
36 38 46 46 44 44 65 82 80 71 69 74 85 91 93 82 33 50 50 13 19 9 111 82 169 354 359 37 58 49 44 42 67 84 84 79 290 37 93 85 93 85 64 17 132 69 63 61 88 39 18 360 349 339
34 38 42 49 51 49 53 82 90 83 78 75 77 89 86 72 52 52 80 287 312 266 89 101 65 12 329 296 44 28 40 52 62 74 65 89 37 24 75 106 128 82 70 77 53 42 102 51 29 10 6 349 341 315
27 33 39 42 46 54 59 81 95 95 97 91 89 89 91 102 110 45 1 6 14 80 65 96 85 56 1 21 52 348 53 56 23 95 28 30 0 27 71 113 110 106 115 108 72 48 81 77 64 40 353 344 10 7
24 26 26 37 42 43 60 100 116 113 119 113 113 101 50 35 49 335 331 11 39 60 97 52 82 132 337 61 43 27 40 60 280 64 32 25 332 59 62 142 127 89 128 129 98 108 110 96 49 26 17 7 5 343
18 22 25 23 24 39 40 76 148 144 142 147 74 79 68 15 294 246 4 29 29 19 30 71 299 56 329 3 50 52 36 64 54 300 315 58 102 86 69 73 101 108 115 134 113 44 28 39 32 355 331 313 314 309
15 17 20 21 22 18 25 44 112 137 103 12 46 69 213 270 167 44 60 45 348 48 14 359 24 37 4 47 76 18 87 9 73 281 95 332 308 171 133 113 101 92 98 84 101 113 120 160 238 311 319 304 300 286
19 19 18 20 18 21 19 19 56 83 39 111 110 100 71 28 26 74 45 20 37 61 355 9 349 4 347 330 73 338 112 40 160 304 73 284 194 119 129 129 105 96 99 100 128 143 176 175 232 245 268 287 285 290
22 22 18 19 18 21 24 23 42 90 74 47 51 53 21 333 42 42 4 5 37 343 360 331 12 335 333 355 55 63 65 180 339 57 212 215 132 129 128 112 110 126 114 125 134 132 77 317 338 194 264 271 287 310
15 21 18 17 18 14 23 30 34 65 58 55 39 31 46 8 52 28 357 360 356 331 345 332 307 55 275 52 1 83 259 63 48 54 242 207 175 152 139 150 127 185 175 162 159 149 166 204 271 279 239 245 258 304
13 21 12 6 14 11 23 34 39 50 59 61 45 50 61 209 166 295 237 244 355 278 294 288 285 179 3 77 45 109 42 318 183 221 209 172 129 136 151 170 172 177 178 188 197 167 207 263 292 290 265 262 288 308
6 40 4 356 4 12 24 36 33 68 59 63 45 78 54 329 165 341 342 19 1 302 266 252 49 62 26 101 55 56 100 209 250 248 230 121 155 165 161 162 176 178 181 189 195 199 222 213 226 248 291 272 293 295
36 42 346 353 359 19 28 68 53 50 69 51 45 34 335 84 109 15 329 329 321 315 36 359 57 200 315 45 27 174 180 214 188 169 138 146 169 183 161 158 161 173 199 221 211 225 231 247 325 342 307 271 285 288
37 326 358 359 25 43 34 35 75 72 64 26 82 309 71 358 278 135 321 348 329 351 23 148 118 63 130 138 265 225 141 161 25 118 144 124 122 138 162 188 182 181 197 216 213 235 217 229 249 246 218 241 298 294
323 2 5 14 64 78 60 27 44 89 70 54 129 15 59 134 201 221 267 297 239 286 52 32 68 124 231 208 173 200 160 170 162 180 122 144 157 171 188 176 165 179 195 203 200 220 219 206 215 222 232 189 222 259
359 10 8 22 35 63 58 17 21 86 93 204 51 35 50 181 280 300 309 6 317 7 37 63 206 221 189 208 162 178 157 144 125 111 206 205 180 165 199 185 195 201 199 222 243 220 270 288 239 218 208 203 198 252
16 347 8 46 46 61 82 359 52 75 129 91 256 2 250 6 4 3 326 358 25 199 238 211 211 207 48 40 10 358 111 128 180 161 179 157 174 176 192 196 152 145 183 210 211 248 214 228 236 201 182 222 223 229
315 351 46 31 71 56 77 0 105 175 80 171 91 278 33 26 311 297 273 34 227 227 181 173 191 144 131 228 222 211 210 113 72 95 88 107 129 162 221 191 153 214 214 217 209 225 234 231 206 192 186 246 239 241
5 27 44 33 70 44 301 24 69 358 71 306 12 34 343 347 261 317 306 225 252 219 137 132 146 90 129 193 341 262 191 163 191 200 199 205 198 173 161 192 182 191 225 243 202 215 227 213 194 195 217 221 224 249
26 48 47 47 53 117 11 20 46 63 38 30 42 341 329 301 331 42 264 254 235 117 145 191 138 91 12 12 251 224 196 177 197 260 198 156 206 244 206 215 203 214 212 189 177 203 207 210 199 201 210 230 234 246
66 352 46 17 356 67 50 17 353 53 110 253 81 307 277 19 31 286 232 264 231 225 191 150 180 227 183 233 248 221 167 169 185 213 212 194 169 36 280 234 227 227 167 175 221 211 221 197 208 215 221 220 231 239
71 328 71 209 308 106 195 125 193 195 143 176 230 252 47 79 59 244 234 221 212 183 176 187 183 174 244 215 219 193 213 181 139 194 245 188 195 198 212 206 232 264 195 203 176 195 206 207 207 213 225 229 237 244
92 269 28 214 117 111 65 34 40 99 155 198 208 123 81 210 248 250 272 239 184 220 176 169 179 192 196 193 213 183 162 166 169 191 233 211 206 210 197 204 222 235 159 174 190 195 206 207 211 214 226 225 222 223
137 167 160 191 85 351 138 131 158 203 218 214 86 192 188 200 235 235 209 214 153 139 136 223 218 181 166 183 166 125 90 102 55 346 304 252 224 222 223 233 213 182 176 180 190 195 206 210 212 216 218 230 236 215
56 319 84 56 38 154 207 184 214 219 210 146 170 234 240 240 248 231 237 179 123 104 149 222 264 126 2 287 231 195 144 157 154 178 225 245 295 257 199 206 198 199 197 195 215 209 204 211 219 227 231 232 232 224
221 14 88 60 154 232 245 78 269 334 349 303 303 303 280 266 249 203 152 150 175 211 203 185 177 169 213 192 229 236 210 204 214 201 194 220 222 205 155 170 182 183 179 194 210 216 240 244 231 225 212 215 211 221
134 122 103 150 231 231 178 294 156 327 332 299 113 208 269 306 303 244 210 210 183 143 133 234 231 206 202 212 210 225 248 209 216 223 231 200 167 163 178 187 187 172 177 187 194 200 201 208 216 225 230 231 232 231
114 165 144 194 258 229 179 132 179 251 225 309 268 235 302 322 274 275 184 128 123 188 221 201 201 238 208 221 218 232 183 161 185 209 209 217 227 220 208 207 196 187 192 200 203 209 212 221 225 223 232 237 239 239
74 65 52 350 329 301 278 83 340 314 233 251 246 199 225 219 251 284 256 217 202 189 193 200 203 187 195 198 210 220 231 215 207 209 199 206 210 210 202 206 205 198 203 216 220 219 221 224 228 229 231 236 241 238